FENGYUN 1C DEB

Satellite information

Favourite Embed

Satellite Type and Status

DEBRISIN ORBIT

Key statistics

Satellite FENGYUN 1C DEB at a glance.

Uptime

9618

Days in orbit

Revolutions

≈ 14.2

Per day

Orbit

SSO

Sun Synchronous Orbit

Inclination

98.5

Latest

Satellite identification and parameters

Extended collection of information and parameters for FENGYUN 1C DEB.

Object identification

Identified? True

Debris? True

Object name: FENGYUN 1C DEB

International designator: 1999-025EEN

Object number (NORAD): 37054

Object ID (CCSDS): 37054

Country: PEOPLES REPUBLIC OF CHINA (PRC)

Current information (Y/N): Y

RCS size: SMALL

Orbital parameters

Period: 101.462 minutes

Inclination: 98.5395 deg

SMA: 7206.009 km

Apoapsis: 900.975 km

Periapsis: 754.772 km

RAAN: 232.2114 deg

Eccentricy: 0.01014457

Argument of periapsis: 36.812 deg

Mean anomaly: 323.9967 deg

Mean motion: 14.19255552 rev/day

Mean motion (dot): 0.0000153 rev/day2

B* drag term: 0.00071181373 1/REarth

Two-line elements (TLE)

Creation date: Sept. 3, 2025, 10:15 a.m.

Reference frame: TEME

Reference center: EARTH

Epoch: Sept. 3, 2025, 5:31 a.m. UTC

TLE line 0: 0 FENGYUN 1C DEB

TLE line 1: 1 37054U 99025EEN 25246.22992639 .00001530 00000-0 71181-3 0 9995

TLE line 2: 2 37054 98.5395 232.2114 0101446 36.8120 323.9967 14.19255552630031

Live tracking on map

Real-time ground track for satellite FENGYUN 1C DEB.

In-orbit conjunctions

A list of the most updated potential collisions computed for object FENGYUN 1C DEB.

Target Orbit TCA Probability of collision Miss distance Type
SL-8 R/B LEO 2025-06-12 17:29:03 0.0006765673 75.0 (m) ROCKET BODY
FENGYUN 1C DEB SSO 2024-11-09 05:20:47 0.0004927903 479.0 (m) DEBRIS

Associated space launch

Chinese polar orbiting meteorological satellite

FENGYUN 1C DEB was lifted into orbit during the mission ‘Long March 4B | Feng Yun 1C’, on board a Long March 4B space rocket.

The launch took place on May 10, 1999, 1:33 a.m. from Launch Complex 7.

For more information about the launch, click the button.

Launch to space Long March 4B | Feng Yun 1C
Long March 4B | Feng Yun 1C

Agency: N/A

Status: Launch Successful

Launch date: May 10, 1999, 1:33 a.m. UTC

Rocket: Long March 4B

Launch pad: Launch Complex 7

Location: Taiyuan Satellite Launch Center, People's Republic of China

...

Latest news about this satellite

There are no fresh news available about this satellite. Check back as we update our databases every day.


Newsletter sign-up

Weekly statistics, charts and insights to help you stay on top of the space industry.